Hydraulic Press Brake

Hydraulic Press Brake

Ram travel repeatable within ±0.03mm for consistent bends for interchangeable output. Ram travels is referenced from bed to avoid side frame deflections affecting stroke accuracy.

Rugged structure from ultra tested Is 2062plates, rigidity conforming to international standards. Hydraulic, electricals of internationally reputed brands for consistent performance and reliable operation. Front operated manually back gauge front sheet supports with scale Most hydraulic parts rated for 310 bar but working pressure only 160 bar for long life, reliable operation. Ram guides of 4-piece design with replaceable liners. Pivots with permanently lubricated bearings or hardened parts lubricated by central hand pump Cylinders of ultra-tested seamless honed tubes, hard chrome-plated pistons, dual seals )Telfon ring plus set of chevron packings) for extra reliability. 3-speed bending cycles for faster output yet slow smooth bending with minimal shock loads. Movable control station with majority controls, emergency stop, up-down foot-switch controls, Inch cycle mode for set-up and one-off jobs. Single cycle modes for repeat cycles, production runs.

Main cylinders seals can be easily replaced without requiring crane of dismantling the ram. Hydraulic powder gives silent working, better safety against overload, instant stoppage-reversal of ram One set of unhanded standard punch, multi-V die Block Lifting chains system and rotation of die block when using multi-vee die block.

Model Tonnage Bending Cap. In MS Length x Thickness Table Width Clear Distance Ram Stroke Open Height Depth Power H.P. Speed App. Pre. Ret. Packing Dimension In MM
Length A Width B Height C
PBR-212 20 1270 x 2.5 150 900 100 250 200 3 35-9-60 1400 1050 1900
PBR-215 20 1525 x 2 150 1100 100 250 200 3 35-9-60 1700 1050 1900
PBR-312 30 1270 x 3 150 900 100 250 200 3 30-9-53 1400 1050 1900
PBR-315 30 1525 x 2.15 150 1100 100 250 200 3 30-9-53 2700 1050 1900
PBR-320 30 2030 x 2 150 1500 100 250 200 3 30-9-53 2200 1050 1900
PBR-325 30 2540 x 1.6 150 2000 100 250 200 3 30-9-53 2700 1050 1900
PBR-412 40 1270 x 2 150 900 100 250 200 5 35-9-55 1400 1050 1900
PBR-415 40 1525 x 3 150 1100 100 250 200 5 35-9-55 1700 1050 1900
PBR-420 40 2030 x 2.5 150 1550 100 250 200 5 35-9-55 2200 1050 1900
PBR-425 40 2540 x 2 150 2000 100 250 200 5 35-9-55 2700 1050 1900
PBR-430 40 3125 x 1.6 150 2500 400 250 200 5 35-9-55 3300 1050 1900
PBR-512 50 1270 x 5 175 900 125 250 200 5 30-7-55 1400 1050 1900
PBR-515 50 1525 x 4 175 1100 125 250 200 5 30-7-55 1700 1050 1900
PBR-520 50 2030 x 3 175 1550 125 250 200 5 30-7-55 2200 1050 1900
PBR-525 50 2540 x 2.5 175 2000 125 250 200 5 35-7-55 2700 1050 1900
PBR-530 50 3125 x 2 175 2500 125 250 200 5 30-7-55 3300 1050 1900
PBR-612 60 1270 x 6 175 900 125 330 200 5 25-6-50 1400 1200 2000
PBR-615 60 1525 x 5 175 1100 125 330 200 5 25-6-50 1700 1200 2000
PBR-620 60 2030 x 4 175 1550 125 330 200 5 25-6-50 2200 1200 2000
PBR-625 60 2540 x 3 175 2000 125 330 200 5 25-6-50 2700 1200 2000
PBR-630 60 3125 x 2.5 175 2500 125 330 200 5 25-6-50 3300 1200 2000
PBR-812 80 1270 x 8 200 400 150 330 200 7.5 37-6-41 1400 1500 2200
PBR-815 80 1525 x 6 200 1100 150 330 250 7.5 37-6-41 1700 1500 2200
PBR-820 80 2030 x 5 200 1550 150 330 250 7.5 37-6-41 2200 1500 2200
PBR-825 80 2540 x 4 200 2000 150 330 250 7.5 37-6-41 2700 1500 2200
PBR-830 80 3125 x 3 200 2500 150 330 250 7.5 37-6-41 3300 1500 2200
PBR-840 80 4000 x 2.5 200 3500 150 330 250 7.5 37-6-41 4200 1500 2200
PBR-1012 100 1270 x 10 200 900 150 330 250 7.5 40-5-40 1400 1500 2200
PBR-1015 100 1525 x 8 200 1100 150 330 250 7.5 40-5-40 1700 1500 2200
PBR-1020 100 2030 x 6 200 1550 150 330 250 10 40-5-40 2200 1600 2300
PBR-1025 100 2540 x 5 200 2000 150 330 250 10 40-5-40 2700 1600 2300
PBR-1030 100 3125 x 4 200 2500 150 330 250 10 40-5-40 3300 1600 2300
PBR-1040 100 4000 x 3 200 3000 150 330 250 10 40-5-40 4200 1600 2300
PBR-1050 100 5000 x 2.5 200 4000 150 330 250 10 40-5-40 5200 1600 2300
PBR-1060 100 6000 x 2 200 5000 150 330 250 10 40-5-40 6200 1600 2300
PBR-1212 120 1270 x 12 225 900 150 330 300 10 41-6-41 1400 1700 2300
PBR-1215 120 1525 x 10 225 1100 150 330 300 10 41-6-41 1700 1700 2500
PBR-1220 120 2030 x 8 200 1550 150 330 300 10 41-6-41 2200 1700 2800
PBR-1225 120 2540 x 6 200 2000 150 330 300 10 41-6-41 2700 1700 2500
PBR-1230 120 3125 x 5 200 2500 150 330 300 10 41-6-41 3300 1700 2500
PBR-1240 120 4000 x 4 200 3000 150 330 300 10 41-6-41 4200 1700 2500
PBR-1250 120 5000 x 3 150 4000 150 330 300 10 41-6-41 5200 1700 2500
PBR-1260 120 6000 x 2.5 150 5000 150 330 300 10 41-6-41 6200 1700 2500
PBR-1612 160 1270 x 16 225 900 200 375 300 15 40-6-40 1400 1800 2500
PBR-1615 160 1525 x 12 225 1100 200 375 300 15 40-6-40 1700 1800 2500
PBR-1620 160 2030 x 10 225 1550 200 375 300 15 40-6-40 2200 1800 2500
PBR-1625 160 2540 x 8 200 2000 200 375 300 15 40-6-40 2700 1800 2500
PBR-1630 160 3125 x 6 200 2500 200 375 300 15 40-6-40 3300 1800 2500
PBR-1640 160 4000 x 5 200 3000 200 375 300 15 40-6-40 4200 1800 2500
PBR-1650 160 5000 x 4 175 4000 200 375 300 15 40-6-40 5200 1800 2500
PBR-1660 160 6000 x 3 175 5000 200 375 300 15 40-6-40 6200 1800 2500
PBR-2020 200 2030 x 12 250 1550 200 375 300 20 37-5-37 2200 2000 2600
PBR-2025 200 2540 x 10 250 2000 200 375 300 20 37-5-37 2700 2000 2600
PBR-2030 200 3125 x 8 250 2500 200 375 300 20 37-5-37 3300 2000 2600
PBR-2040 200 4000 x 6 200 3000 200 375 300 20 37-5-37 4200 2000 2600
PBR-2050 200 5000 x 5 200 4000 200 375 300 20 37-5-37 5200 2000 2600
PBR-2060 200 6000 x 4 200 5000 200 375 300 20 37-5-37 6200 2000 2600
PBR-2520 250 2030 x 16 300 1550 200 375 300 25 40-5-40 2200 2100 2700
PBR-2525 250 2540 x 13 300 2000 200 375 300 25 40-5-40 2700 2100 2200
PBR-2530 250 3125 x 10 250 2500 200 375 300 25 40-5-40 2300 2100 2700
PBR-2540 250 4000 x 8 200 3000 200 375 300 25 40-5-40 4200 2100 2700
PBR-2550 250 5000 x 6 200 4000 200 375 300 25 40-5-40 5200 2100 2700
PBR-2560 250 6000 x 5 200 5000 200 375 300 25 40-5-40 6200 2100 2700
PBR-3020 300 2030 x 20 275 1550 200 425 300 30 36-5-36 2200 2150 2900
PBR-3025 300 2540 x 16 275 2000 200 425 300 30 36-5-36 2700 2150 2900
PBR-3030 300 3125 x 13 275 2500 200 425 300 30 36-5-36 3300 2150 2900
PBR-3040 300 4000 x 10 275 3000 200 425 300 30 36-5-36 4200 2150 2900
PBR-3050 300 5000 x 8 250 4000 200 425 300 30 36-5-36 5200 2150 2900
PBR-3060 300 6000 x 6 250 5000 250 425 300 30 36-5-36 6200 2150 2900
PBR-4020 400 2030 x 25 400 1550 250 450 350 40 34-5-34 2200 2200 3000
PBR-4025 400 2540 x 20 400 2000 250 450 350 40 34-5-34 2700 2200 3000
PBR-4030 400 3125 x 16 300 2500 250 450 350 40 34-5-34 3300 2200 3000
PBR-4040 400 4000 x 13 300 3000 250 450 350 40 34-5-34 4200 2200 3000
PBR-4050 400 5000 x 10 300 4000 250 450 350 40 34-5-34 5200 2200 3000
PBR-4060 400 6000 x 8 350 5000 250 450 350 40 34-5-34 6200 2200 3000
PBR-5020 500 2030 x 30 400 1550 250 450 350 50 28-5-28 2200 2300 3200
PBR-5025 500 2540 x 25 400 2000 250 450 400 50 28-5-28 2700 2300 3200
PBR-5030 500 3125 x 20 400 2500 250 450 400 50 28-5-28 3300 2300 3200
PBR-5040 500 4000 x 16 300 3000 250 450 400 50 28-5-28 4200 2300 3200
PBR-5050 500 5000 x 13 300 4000 250 450 400 50 28-5-28 5200 2300 3200
PBR-5060 500 6000 x 10 300 5000 250 450 400 50 28-5-28 6200 2300 3200
error: Content is protected !!

Chat with us!

Click below to chat on WhatsApp